[[{"header":{"parameterUnit":"m.s-1","parameterCategory":1,"la1":30.2991,"la2":30.254,"lo1":-89.0895,"lo2":-89.0444,"dy":0.0017,"dx":0.0017,"nx":28,"ny":28,"refTime":"2025-07-04T03:00:00:Z","depth":0,"parameterNumber":2,"parameterNumberName":"U-component_of_WINDS"},"data":[0,0,0,0,0,0,0,0,0,0,0,0,0,0,0,0,0,0,0,0,0,0,0,0,0,0,0,0,0,0,0,0,0,0,0,0,0,0,0,0,0,0,0,0,0,0,0,0,0,0,0,0,0,0,0,0,0,0,-0.956,-0.956,0,-0.9548,-0.9548,-0.9548,-0.9447,-0.9444,-0.9442,-0.9439,-0.9431,-0.9433,-0.9436,0,0,0,0,0,0,0,0,0,0,0,0,0,-0.9498,-0.95,-0.956,-0.956,-0.956,-0.9548,-0.9548,-0.9548,-0.9447,-0.9444,-0.9441,-0.9438,-0.9431,-0.9433,-0.9436,0,0,0,0,0,0,0,0,0,0,0,0,0,-0.951,-0.95,-0.956,-0.9508,-0.9503,-0.9548,-0.9548,-0.9548,-0.9448,-0.9444,-0.944,-0.9437,-0.943,-0.9433,-0.9436,-0.9531,0,0,-0.9446,-0.9447,0,0,0,0,0,0,0,0,-0.9509,-0.9512,-0.9516,-0.9512,-0.9506,-0.9495,-0.9523,-0.9542,-0.9449,-0.9469,-0.9439,-0.9435,-0.9456,-0.9457,-0.9463,-0.9531,-0.9531,-0.9446,-0.9448,-0.9449,-0.945,0,0,0,0,0,0,0,-0.9509,-0.9512,-0.9555,-0.9516,-0.951,-0.9486,-0.9483,-0.9526,-0.9484,-0.9467,-0.9459,-0.9459,-0.9453,-0.946,-0.9462,-0.9531,-0.9446,-0.9449,-0.9451,-0.9452,-0.9675,-0.9679,0,0,0,0,0,0,-0.9514,-0.9512,-0.9556,-0.9555,-0.9498,-0.949,-0.9487,-0.9502,-0.9483,-0.9476,-0.9462,-0.9455,-0.9456,-0.9458,-0.9461,-0.9571,-0.9449,-0.9452,-0.9454,-0.9671,-0.9676,-0.968,0,0,0,0,0,0,-0.9514,-0.9519,-0.9556,-0.9531,-0.9534,-0.9495,-0.9513,-0.9504,-0.9511,-0.948,-0.9472,-0.9478,-0.9453,-0.9457,-0.9514,-0.9569,-0.9454,-0.9457,-0.9666,-0.9672,-0.9678,-0.9792,0,0,0,0,0,0,-0.9512,-0.952,-0.9555,-0.9533,-0.9536,-0.9609,-0.9516,-0.9507,-0.9517,-0.9506,-0.9492,-0.9486,-0.9451,-0.951,-0.9517,-0.9571,-0.9459,-0.9661,-0.9669,-0.9676,-0.9783,-0.9801,-0.9816,0,0,0,0,0,-0.951,-0.9589,-0.9557,-0.9563,-0.9579,-0.9612,-0.9614,-0.9571,-0.9522,-0.9557,-0.9536,-0.9486,-0.9562,-0.9517,-0.9524,-0.958,-0.9657,-0.9667,-0.9675,-0.9775,-0.9797,-0.9816,0,0,0,0,0,0,-0.9621,-0.9585,-0.955,-0.9623,-0.9621,-0.9595,-0.9639,-0.9596,-0.9609,-0.9599,-0.9545,-0.9543,-0.9609,-0.96,-0.955,-0.9671,-0.9601,-0.9612,-0.9674,-0.9695,-0.9711,-0.9712,-0.9462,0,0,0,0,0,-0.9653,-0.9682,-0.965,-0.9718,-0.9718,-0.9679,-0.9692,-0.9658,-0.9655,-0.9654,-0.9637,-0.9637,-0.966,-0.9677,-0.9696,-0.978,-0.9776,-0.9823,-0.9839,-0.9853,-0.9864,-0.9906,-0.9927,-0.971,-0.971,-0.9709,0,0,-0.9722,-0.9706,-0.9727,-0.9739,-0.9734,-0.9765,-0.9679,-0.9717,-0.974,-0.966,-0.9712,-0.97,-0.9696,-0.9767,-0.9797,-0.9762,-0.9922,-0.9864,-0.9876,-0.9879,-0.9918,-0.9938,-0.9957,-0.9716,-0.9715,-0.9714,0,0,-0.9862,-0.9853,-0.9908,-0.9903,-0.9895,-0.9868,-0.9881,-0.9861,-0.9849,-0.9901,-0.9841,-0.9868,-0.991,-0.9909,-0.9914,-1.0051,-1.0006,-1.0059,-1.0147,-1.0189,-1.0206,-1.0221,-1.027,-1.0289,-1.0069,-1.007,-1.007,0,-0.9949,-0.9992,-0.9942,-0.9982,-0.9989,-0.9916,-0.9972,-0.997,-0.997,-0.9977,-0.9936,-0.9985,-0.9978,-1.0047,-1.008,-1.0087,-1.01,-1.0061,-1.0208,-1.0222,-1.0235,-1.0282,-1.03,-1.0076,-1.0076,-1.0075,-1.0074,0,-1.0099,-1.013,-1.0176,-1.0175,-1.0186,-1.0235,-1.0192,-1.021,-1.0175,-1.0153,-1.0206,-1.0193,-1.0208,-1.0222,-1.0189,-1.0287,-1.0264,-1.0217,-1.0146,-1.0264,-1.0306,-1.0323,-1.0086,-1.0083,-1.0081,-1.008,0,0,-1.0311,-1.0279,-1.0297,-1.0295,-1.0279,-1.0303,-1.0347,-1.036,-1.0377,-1.0379,-1.0415,-1.0451,-1.0405,-1.0411,-1.0377,-1.0415,-1.0524,-1.0362,-1.0361,-1.0393,-1.063,-1.0666,-1.0688,-1.0493,-1.0496,-1.0499,-1.063,0,-1.0446,-1.0518,-1.0473,-1.0553,-1.0581,-1.0511,-1.0549,-1.0545,-1.0524,-1.0546,-1.0524,-1.055,-1.0488,-1.0491,-1.0525,-1.0504,-1.0571,-1.0493,-1.0527,-1.0529,-1.0531,-1.071,-1.0749,-1.0874,-1.0647,-1.0649,-1.0651,0,-1.0613,-1.062,-1.0702,-1.0679,-1.0689,-1.0725,-1.0732,-1.0753,-1.0746,-1.0729,-1.0734,-1.069,-1.0733,-1.0662,-1.072,-1.0668,-1.0679,-1.067,-1.0674,-1.0676,-1.0598,-1.0717,-1.0912,-1.0932,-1.0677,-1.0675,-1.0673,0,-1.076,-1.0789,-1.0841,-1.0842,-1.0817,-1.0843,-1.0834,-1.0823,-1.0833,-1.084,-1.0846,-1.0859,-1.0866,-1.0877,-1.0838,-1.079,-1.0901,-1.0827,-1.0888,-1.089,-1.0916,-1.0915,-1.1116,-1.0922,-1.0922,-1.0922,-1.0921,0,-1.0915,-1.0969,-1.0906,-1.0939,-1.0996,-1.0944,-1.1002,-1.0986,-1.0976,-1.1005,-1.0945,-1.0974,-1.092,-1.0943,-1.0913,-1.0965,-1.0969,-1.0956,-1.0948,-1.0962,-1.0964,-1.0969,-1.096,-1.0927,-1.0926,-1.0925,-1.0924,0,-1.1089,-1.1049,-1.1102,-1.1072,-1.1066,-1.111,-1.1085,-1.1115,-1.1089,-1.1126,-1.1132,-1.1092,-1.1116,-1.1078,-1.1098,-1.1077,-1.115,-1.1128,-1.1152,-1.1146,-1.1209,-1.1204,-1.1422,-1.1447,-1.1237,-1.1239,-1.1241,0,-1.1191,-1.123,-1.1204,-1.1218,-1.1211,-1.1235,-1.1244,-1.1193,-1.1206,-1.1199,-1.123,-1.1248,-1.126,-1.1302,-1.1276,-1.129,-1.1268,-1.1344,-1.1271,-1.1283,-1.127,-1.1268,-1.1272,-1.1359,-1.1362,-1.1364,-1.1365,0,-1.1377,-1.1355,-1.1369,-1.1377,-1.1389,-1.1393,-1.1393,-1.1408,-1.1355,-1.1372,-1.1394,-1.1403,-1.1422,-1.1442,-1.145,-1.1441,-1.1395,-1.1388,-1.1403,-1.1419,-1.1431,-1.1425,-1.1193,-1.1384,-1.1382,-1.1381,-1.138,-1.1379,-1.1518,-1.1548,-1.1534,-1.1552,-1.1546,-1.1547,-1.1572,-1.1549,-1.1566,-1.1576,-1.1545,-1.1575,-1.1566,-1.1571,-1.1568,-1.1591,-1.1558,-1.158,-1.1585,-1.1592,-1.1602,-1.1427,-1.1592,-1.1592,-1.1591,-1.1591,-1.159,0,-1.17,-1.1687,-1.1704,-1.1704,-1.1718,-1.1671,-1.1668,-1.1683,-1.1709,-1.1704,-1.1716,-1.1741,-1.1759,-1.1734,-1.1747,-1.1771,-1.175,-1.1776,-1.1774,-1.1773,-1.163,-1.1616,-1.1793,-1.1793,-1.1793,-1.1793,-1.1793,-1.1793,-1.1797,-1.1845,-1.1821,-1.1867,-1.1853,-1.188,-1.1882,-1.1883,-1.1877,-1.1908,-1.1922,-1.1904,-1.1891,-1.1902,-1.1917,-1.1909,-1.1917,-1.1951,-1.1936,-1.1803,-1.1783,-1.1764,-1.175,-1.1953,-1.1953,-1.2076,-1.2077,-1.2078]},{"header":{"parameterUnit":"m.s-1","parameterCategory":1,"la1":30.2991,"la2":30.254,"lo1":-89.0895,"lo2":-89.0444,"dy":0.0017,"dx":0.0017,"nx":28,"ny":28,"refTime":"2025-07-04T03:00:00:Z","depth":0,"parameterNumber":3,"parameterNumberName":"V-component_of_WINDS"},"data":[0,0,0,0,0,0,0,0,0,0,0,0,0,0,0,0,0,0,0,0,0,0,0,0,0,0,0,0,0,0,0,0,0,0,0,0,0,0,0,0,0,0,0,0,0,0,0,0,0,0,0,0,0,0,0,0,0,0,-2.2839,-2.284,0,-2.2937,-2.2938,-2.2939,-2.295,-2.2949,-2.2948,-2.2947,-2.3045,-2.3049,-2.3052,0,0,0,0,0,0,0,0,0,0,0,0,0,-2.266,-2.2663,-2.2839,-2.284,-2.2842,-2.2937,-2.2938,-2.2939,-2.295,-2.2949,-2.2948,-2.2947,-2.3044,-2.3048,-2.3053,0,0,0,0,0,0,0,0,0,0,0,0,0,-2.2745,-2.2664,-2.2839,-2.2858,-2.2861,-2.2936,-2.2938,-2.294,-2.295,-2.2949,-2.2947,-2.2946,-2.3043,-2.3048,-2.3053,-2.3115,0,0,-2.3069,-2.3072,0,0,0,0,0,0,0,0,-2.2741,-2.2752,-2.2854,-2.2857,-2.286,-2.293,-2.2911,-2.2998,-2.2951,-2.2916,-2.2947,-2.2945,-2.3008,-2.3016,-2.3038,-2.312,-2.3124,-2.307,-2.3073,-2.3075,-2.3077,0,0,0,0,0,0,0,-2.2735,-2.2748,-2.2878,-2.2856,-2.286,-2.2862,-2.2872,-2.2927,-2.2969,-2.2919,-2.292,-2.2932,-2.3009,-2.3032,-2.304,-2.3125,-2.307,-2.3074,-2.3078,-2.308,-2.3262,-2.3263,0,0,0,0,0,0,-2.2725,-2.2743,-2.2875,-2.2881,-2.2796,-2.2866,-2.2878,-2.2909,-2.2969,-2.2976,-2.2933,-2.2932,-2.3024,-2.3034,-2.3043,-2.3119,-2.3075,-2.308,-2.3083,-2.326,-2.3262,-2.3264,0,0,0,0,0,0,-2.2721,-2.2737,-2.2871,-2.2812,-2.2829,-2.2871,-2.2905,-2.2912,-2.2935,-2.2979,-2.2986,-2.2949,-2.3023,-2.3036,-2.3097,-2.3122,-2.3083,-2.3087,-2.3258,-2.3261,-2.3263,-2.3271,0,0,0,0,0,0,-2.2716,-2.2736,-2.276,-2.2813,-2.2832,-2.2923,-2.2907,-2.2915,-2.2944,-2.2944,-2.2996,-2.3003,-2.3023,-2.3089,-2.3102,-2.3129,-2.3092,-2.3256,-2.3259,-2.3262,-2.3268,-2.3273,-2.3277,0,0,0,0,0,-2.271,-2.2758,-2.2761,-2.2777,-2.2864,-2.2925,-2.2936,-2.2958,-2.2946,-2.297,-2.2999,-2.3002,-2.3118,-2.3095,-2.311,-2.3139,-2.3255,-2.3258,-2.3262,-2.3266,-2.3272,-2.3277,0,0,0,0,0,0,-2.2707,-2.2765,-2.2769,-2.2836,-2.2876,-2.2926,-2.2958,-2.2964,-2.3007,-2.3005,-2.3031,-2.3042,-2.3102,-2.3127,-2.3101,-2.3201,-2.3185,-2.3192,-2.3183,-2.3189,-2.3193,-2.3185,-2.3096,0,0,0,0,0,-2.2714,-2.2759,-2.2808,-2.2862,-2.2882,-2.2916,-2.2944,-2.2958,-2.2999,-2.3016,-2.3048,-2.3088,-2.3133,-2.3162,-2.3207,-2.3272,-2.3283,-2.3299,-2.3303,-2.3307,-2.3312,-2.3348,-2.3355,-2.3276,-2.3276,-2.3276,0,0,-2.273,-2.2767,-2.2794,-2.2862,-2.2894,-2.294,-2.293,-2.2979,-2.3012,-2.3023,-2.3082,-2.3108,-2.3153,-2.3217,-2.3246,-2.3239,-2.3337,-2.3312,-2.3314,-2.3318,-2.3352,-2.336,-2.3366,-2.3279,-2.3278,-2.3278,0,0,-2.278,-2.2814,-2.2862,-2.2894,-2.2943,-2.2966,-2.2977,-2.3028,-2.3045,-2.3105,-2.3114,-2.3154,-2.3231,-2.3263,-2.329,-2.3352,-2.3356,-2.3366,-2.3389,-2.3423,-2.3429,-2.3434,-2.3455,-2.3463,-2.3371,-2.3371,-2.3371,0,-2.2793,-2.2862,-2.2886,-2.2934,-2.2964,-2.2976,-2.3024,-2.3054,-2.3115,-2.3134,-2.3126,-2.3223,-2.3255,-2.3325,-2.334,-2.3361,-2.3375,-2.3359,-2.3426,-2.3432,-2.3438,-2.3458,-2.3466,-2.3372,-2.3372,-2.3372,-2.3372,0,-2.2875,-2.2923,-2.2956,-2.3014,-2.3047,-2.3095,-2.3126,-2.3156,-2.3167,-2.3191,-2.3251,-2.329,-2.3341,-2.3359,-2.337,-2.3431,-2.3425,-2.3421,-2.3405,-2.3445,-2.3465,-2.3473,-2.3373,-2.3373,-2.3373,-2.3372,0,0,-2.2926,-2.2997,-2.3009,-2.3035,-2.3089,-2.3126,-2.3174,-2.3225,-2.3251,-2.3292,-2.3332,-2.3398,-2.3394,-2.3424,-2.3439,-2.3469,-2.3514,-2.3461,-2.3463,-2.3469,-2.3582,-2.3584,-2.3592,-2.3517,-2.3519,-2.352,-2.3578,0,-2.2982,-2.3069,-2.3092,-2.3165,-2.3209,-2.3221,-2.3263,-2.33,-2.3323,-2.3363,-2.3388,-2.3434,-2.3426,-2.3444,-2.3475,-2.3502,-2.3537,-2.3499,-2.3554,-2.3556,-2.3541,-2.3603,-2.3605,-2.3657,-2.3586,-2.3587,-2.3588,0,-2.306,-2.3102,-2.318,-2.3228,-2.3247,-2.3285,-2.3333,-2.3371,-2.3413,-2.3428,-2.3461,-2.3473,-2.3523,-2.3505,-2.3573,-2.3546,-2.357,-2.3587,-2.359,-2.3595,-2.3573,-2.3609,-2.3675,-2.3682,-2.36,-2.3599,-2.3598,0,-2.3088,-2.3165,-2.3221,-2.3244,-2.3301,-2.3327,-2.3352,-2.3393,-2.3422,-2.3464,-2.3482,-2.3529,-2.3555,-2.3591,-2.3614,-2.3599,-2.368,-2.3664,-2.3693,-2.3692,-2.3709,-2.3707,-2.3779,-2.3726,-2.3726,-2.3726,-2.3725,0,-2.3147,-2.3194,-2.3235,-2.3269,-2.3322,-2.3347,-2.3398,-2.3423,-2.346,-2.3498,-2.3512,-2.3548,-2.3578,-2.3618,-2.3637,-2.3689,-2.3701,-2.3714,-2.3718,-2.3712,-2.371,-2.3727,-2.3724,-2.3728,-2.3727,-2.3727,-2.3727,0,-2.3188,-2.3217,-2.3279,-2.3328,-2.3342,-2.3378,-2.342,-2.3453,-2.3477,-2.3526,-2.3539,-2.3575,-2.3623,-2.3651,-2.3711,-2.3723,-2.3782,-2.3785,-2.3767,-2.3769,-2.3796,-2.3792,-2.388,-2.3892,-2.3832,-2.3833,-2.3833,0,-2.3223,-2.326,-2.3313,-2.334,-2.3366,-2.3409,-2.3439,-2.3465,-2.3495,-2.3546,-2.3573,-2.3621,-2.3661,-2.3737,-2.3768,-2.3814,-2.3818,-2.3845,-2.3825,-2.3817,-2.3817,-2.3814,-2.3817,-2.3848,-2.3849,-2.3849,-2.385,0,-2.3283,-2.3296,-2.3338,-2.3385,-2.342,-2.3459,-2.3497,-2.3518,-2.3551,-2.3584,-2.3633,-2.3664,-2.3725,-2.3773,-2.3821,-2.3846,-2.3853,-2.3856,-2.3865,-2.3858,-2.3846,-2.3852,-2.3776,-2.3854,-2.3853,-2.3853,-2.3853,-2.3853,-2.3322,-2.3354,-2.3396,-2.3443,-2.3474,-2.3509,-2.3543,-2.3571,-2.3612,-2.3664,-2.3677,-2.3728,-2.3769,-2.3834,-2.3861,-2.39,-2.3896,-2.3909,-2.3912,-2.3914,-2.3914,-2.3841,-2.3909,-2.3909,-2.3909,-2.3909,-2.3909,0,-2.3381,-2.3409,-2.3451,-2.3504,-2.3541,-2.3545,-2.3587,-2.3617,-2.3662,-2.3699,-2.3739,-2.3794,-2.384,-2.3875,-2.3922,-2.3948,-2.3952,-2.3959,-2.3957,-2.3962,-2.3917,-2.3904,-2.3955,-2.3955,-2.3955,-2.3955,-2.3955,-2.3954,-2.3416,-2.3471,-2.3488,-2.3558,-2.3586,-2.3636,-2.366,-2.3692,-2.3722,-2.3784,-2.3822,-2.3845,-2.3881,-2.3931,-2.3973,-2.3982,-2.3998,-2.4004,-2.4014,-2.397,-2.3965,-2.3961,-2.3949,-2.4008,-2.4008,-2.4056,-2.4056,-2.4057]}]]